[[{"header":{"parameterUnit":"m.s-1","parameterCategory":1,"la1":30.2991,"la2":30.254,"lo1":-89.0895,"lo2":-89.0444,"dy":0.0017,"dx":0.0017,"nx":28,"ny":28,"refTime":"2024-12-22T09:00:00:Z","depth":0,"parameterNumber":2,"parameterNumberName":"U-component_of_WINDS"},"data":[0,0,0,0,0,0,0,0,0,0,0,0,0,0,0,0,0,0,0,0,0,0,0,0,0,0,0,0,0,0,0,0,0,0,0,0,0,0,0,0,0,0,0,0,0,0,0,0,0,0,0,0,0,0,0,0,0,0,-2.2264,-2.2264,0,-2.2321,-2.2322,-2.2323,-2.2271,-2.2269,-2.2267,-2.2265,-2.2325,-2.2328,-2.2332,0,0,0,0,0,0,0,0,0,0,0,0,0,-2.2108,-2.2111,-2.2264,-2.2264,-2.2265,-2.2321,-2.2322,-2.2323,-2.2271,-2.2269,-2.2266,-2.2264,-2.2324,-2.2328,-2.2332,0,0,0,0,0,0,0,0,0,0,0,0,0,-2.2172,-2.2113,-2.2263,-2.2246,-2.2245,-2.2321,-2.2322,-2.2323,-2.2272,-2.2269,-2.2265,-2.2262,-2.2322,-2.2328,-2.2333,-2.243,0,0,-2.2349,-2.2352,0,0,0,0,0,0,0,0,-2.2168,-2.2178,-2.2248,-2.2247,-2.2246,-2.2286,-2.2289,-2.2359,-2.2273,-2.2262,-2.2265,-2.2261,-2.2315,-2.232,-2.2338,-2.2432,-2.2435,-2.235,-2.2353,-2.2355,-2.2357,0,0,0,0,0,0,0,-2.2164,-2.2175,-2.2286,-2.2249,-2.2248,-2.2235,-2.2241,-2.2302,-2.2305,-2.2262,-2.2259,-2.2266,-2.2313,-2.2333,-2.2339,-2.2436,-2.235,-2.2354,-2.2358,-2.236,-2.2611,-2.2614,0,0,0,0,0,0,-2.2161,-2.2172,-2.2285,-2.2288,-2.2199,-2.2241,-2.2247,-2.2276,-2.2304,-2.2306,-2.2269,-2.2264,-2.2325,-2.2333,-2.2341,-2.2455,-2.2355,-2.236,-2.2363,-2.2607,-2.2611,-2.2615,0,0,0,0,0,0,-2.2158,-2.2172,-2.2282,-2.2229,-2.2242,-2.2247,-2.228,-2.2279,-2.2299,-2.2309,-2.231,-2.2288,-2.2323,-2.2334,-2.2407,-2.2456,-2.2363,-2.2368,-2.2603,-2.2608,-2.2613,-2.2684,0,0,0,0,0,0,-2.2154,-2.2171,-2.2208,-2.223,-2.2245,-2.2348,-2.2283,-2.2282,-2.2308,-2.2301,-2.2328,-2.2329,-2.2322,-2.24,-2.2413,-2.2462,-2.2372,-2.2599,-2.2605,-2.2612,-2.2678,-2.2691,-2.2703,0,0,0,0,0,-2.2149,-2.2227,-2.221,-2.2224,-2.2291,-2.2351,-2.2359,-2.2349,-2.2312,-2.2349,-2.2356,-2.2328,-2.2449,-2.2408,-2.2422,-2.2474,-2.2596,-2.2604,-2.2611,-2.2672,-2.2689,-2.2703,0,0,0,0,0,0,-2.2211,-2.2229,-2.2211,-2.2299,-2.2324,-2.2342,-2.2388,-2.2367,-2.2404,-2.2396,-2.2382,-2.2388,-2.2466,-2.2477,-2.2431,-2.2568,-2.2516,-2.2527,-2.2558,-2.2574,-2.2586,-2.2582,-2.2376,0,0,0,0,0,-2.2235,-2.2282,-2.2295,-2.2371,-2.2384,-2.2384,-2.241,-2.2399,-2.2425,-2.2435,-2.2447,-2.2473,-2.2517,-2.2546,-2.2587,-2.2679,-2.2683,-2.2721,-2.2734,-2.2744,-2.2754,-2.2802,-2.2819,-2.264,-2.264,-2.264,0,0,-2.2285,-2.23,-2.2331,-2.2383,-2.2402,-2.245,-2.2393,-2.2448,-2.2483,-2.2444,-2.2514,-2.2523,-2.2551,-2.2634,-2.2672,-2.2646,-2.2804,-2.2754,-2.2762,-2.2766,-2.2812,-2.2829,-2.2844,-2.2646,-2.2645,-2.2644,0,0,-2.24,-2.2417,-2.2481,-2.25,-2.2528,-2.2527,-2.2542,-2.2564,-2.2569,-2.2639,-2.2609,-2.2652,-2.2728,-2.2748,-2.2768,-2.289,-2.2866,-2.2904,-2.297,-2.3017,-2.3031,-2.3044,-2.3086,-2.3101,-2.2913,-2.2914,-2.2914,0,-2.2459,-2.253,-2.2517,-2.2573,-2.2596,-2.2562,-2.2626,-2.2645,-2.2685,-2.2702,-2.2673,-2.2766,-2.2783,-2.2869,-2.2899,-2.2917,-2.2933,-2.2901,-2.303,-2.3042,-2.3054,-2.3094,-2.311,-2.2918,-2.2917,-2.2917,-2.2917,0,-2.26,-2.265,-2.2699,-2.2737,-2.2766,-2.2826,-2.2822,-2.2853,-2.284,-2.2842,-2.2913,-2.2931,-2.2974,-2.2994,-2.2983,-2.3079,-2.3062,-2.3032,-2.298,-2.3075,-2.3113,-2.3128,-2.2924,-2.2923,-2.2921,-2.292,0,0,-2.2757,-2.2786,-2.2804,-2.282,-2.2848,-2.2886,-2.2944,-2.2986,-2.3012,-2.3041,-2.3088,-2.3153,-2.3124,-2.3147,-2.3137,-2.3179,-2.3273,-2.3143,-2.3144,-2.3166,-2.3379,-2.3401,-2.3419,-2.3257,-2.3259,-2.3262,-2.3376,0,-2.2873,-2.2973,-2.2962,-2.3057,-2.3103,-2.307,-2.312,-2.3142,-2.3146,-2.3185,-2.3189,-2.3234,-2.3194,-2.3207,-2.3247,-2.3253,-2.3315,-2.3244,-2.3301,-2.3303,-2.3294,-2.3439,-2.3463,-2.357,-2.3391,-2.3393,-2.3395,0,-2.3021,-2.3054,-2.3154,-2.3172,-2.3191,-2.3237,-2.3273,-2.3311,-2.3335,-2.3334,-2.3359,-2.3342,-2.3399,-2.3346,-2.3425,-2.3377,-2.3399,-2.3406,-2.341,-2.3414,-2.3354,-2.3447,-2.3604,-2.362,-2.3418,-2.3417,-2.3415,0,-2.3124,-2.3193,-2.3261,-2.3276,-2.3301,-2.3333,-2.3345,-2.3365,-2.3391,-2.3422,-2.3438,-2.3477,-2.3498,-2.3528,-2.3521,-2.3483,-2.3602,-2.3548,-2.3602,-2.3603,-2.3629,-2.3627,-2.3791,-2.3644,-2.3644,-2.3644,-2.3643,0,-2.3254,-2.3316,-2.3308,-2.335,-2.3418,-2.3404,-2.3472,-2.348,-2.3498,-2.3541,-2.3515,-2.3556,-2.3544,-2.3584,-2.3579,-2.3645,-2.3655,-2.3656,-2.3653,-2.3658,-2.3657,-2.3672,-2.3664,-2.3648,-2.3647,-2.3646,-2.3645,0,-2.3381,-2.3378,-2.345,-2.3466,-2.3472,-2.3521,-2.3535,-2.3574,-2.3575,-2.3629,-2.3641,-2.3643,-2.3688,-2.3684,-2.3736,-2.3732,-2.3813,-2.3802,-2.3805,-2.3802,-2.3856,-2.3851,-2.4035,-2.4058,-2.3897,-2.3898,-2.39,0,-2.3464,-2.3511,-2.3532,-2.3558,-2.3571,-2.3614,-2.3639,-2.3628,-2.3655,-2.3685,-2.372,-2.3763,-2.3797,-2.3871,-2.3877,-2.3916,-2.3905,-2.3967,-2.3911,-2.3913,-2.3905,-2.3902,-2.3906,-2.3978,-2.398,-2.3981,-2.3983,0,-2.3611,-2.3606,-2.3643,-2.368,-2.371,-2.3739,-2.3764,-2.3787,-2.3778,-2.381,-2.3855,-2.3881,-2.3933,-2.3976,-2.4012,-2.4024,-2.4002,-2.4,-2.4015,-2.4019,-2.4018,-2.4018,-2.3834,-2.3996,-2.3995,-2.3994,-2.3993,-2.3992,-2.3717,-2.3757,-2.3777,-2.3819,-2.3837,-2.3861,-2.3898,-2.3903,-2.3941,-2.3982,-2.3972,-2.4024,-2.4045,-2.4092,-2.4107,-2.4147,-2.4125,-2.4146,-2.4151,-2.4156,-2.4162,-2.4012,-2.4154,-2.4153,-2.4153,-2.4153,-2.4152,0,-2.3862,-2.3873,-2.3912,-2.3948,-2.398,-2.3956,-2.3982,-2.4011,-2.4057,-2.4078,-2.4112,-2.4164,-2.4204,-2.4213,-2.4252,-2.4282,-2.4273,-2.4293,-2.429,-2.4293,-2.418,-2.4164,-2.4299,-2.4299,-2.4299,-2.4299,-2.4299,-2.4299,-2.3941,-2.4006,-2.4004,-2.4077,-2.4088,-2.4138,-2.4155,-2.4177,-2.4194,-2.4252,-2.4286,-2.4291,-2.4307,-2.4347,-2.4383,-2.4385,-2.44,-2.4424,-2.4421,-2.4316,-2.4301,-2.4287,-2.4271,-2.4427,-2.4427,-2.453,-2.4531,-2.4532]},{"header":{"parameterUnit":"m.s-1","parameterCategory":1,"la1":30.2991,"la2":30.254,"lo1":-89.0895,"lo2":-89.0444,"dy":0.0017,"dx":0.0017,"nx":28,"ny":28,"refTime":"2024-12-22T09:00:00:Z","depth":0,"parameterNumber":3,"parameterNumberName":"V-component_of_WINDS"},"data":[0,0,0,0,0,0,0,0,0,0,0,0,0,0,0,0,0,0,0,0,0,0,0,0,0,0,0,0,0,0,0,0,0,0,0,0,0,0,0,0,0,0,0,0,0,0,0,0,0,0,0,0,0,0,0,0,0,0,-3.0437,-3.0438,0,-3.0496,-3.0497,-3.0497,-3.0478,-3.0477,-3.0476,-3.0475,-3.0532,-3.0535,-3.0537,0,0,0,0,0,0,0,0,0,0,0,0,0,-3.0304,-3.0306,-3.0437,-3.0438,-3.0438,-3.0496,-3.0497,-3.0497,-3.0479,-3.0477,-3.0476,-3.0474,-3.0531,-3.0534,-3.0537,0,0,0,0,0,0,0,0,0,0,0,0,0,-3.0362,-3.0307,-3.0437,-3.0436,-3.0437,-3.0496,-3.0497,-3.0498,-3.0479,-3.0477,-3.0475,-3.0474,-3.053,-3.0534,-3.0538,-3.06,0,0,-3.055,-3.0552,0,0,0,0,0,0,0,0,-3.0359,-3.0367,-3.0435,-3.0436,-3.0437,-3.0478,-3.0471,-3.0532,-3.0479,-3.0463,-3.0475,-3.0473,-3.0515,-3.052,-3.0535,-3.0603,-3.0605,-3.0551,-3.0553,-3.0555,-3.0556,0,0,0,0,0,0,0,-3.0355,-3.0364,-3.046,-3.0436,-3.0437,-3.0431,-3.0438,-3.0482,-3.0499,-3.0464,-3.0463,-3.047,-3.0515,-3.0532,-3.0537,-3.0606,-3.055,-3.0554,-3.0557,-3.0558,-3.0725,-3.0727,0,0,0,0,0,0,-3.0351,-3.0361,-3.0458,-3.0462,-3.0392,-3.0435,-3.0442,-3.0467,-3.0498,-3.0501,-3.0472,-3.0469,-3.0526,-3.0532,-3.0539,-3.0612,-3.0555,-3.0558,-3.0561,-3.0723,-3.0726,-3.0728,0,0,0,0,0,0,-3.0348,-3.036,-3.0456,-3.0411,-3.0423,-3.044,-3.0467,-3.0469,-3.0485,-3.0504,-3.0507,-3.0486,-3.0524,-3.0533,-3.0585,-3.0614,-3.056,-3.0564,-3.0721,-3.0724,-3.0727,-3.0761,0,0,0,0,0,0,-3.0344,-3.0359,-3.0384,-3.0412,-3.0425,-3.0503,-3.0469,-3.0471,-3.0493,-3.049,-3.0518,-3.0521,-3.0524,-3.0579,-3.0589,-3.0618,-3.0567,-3.0718,-3.0722,-3.0726,-3.0757,-3.0764,-3.0771,0,0,0,0,0,-3.0339,-3.0391,-3.0385,-3.0397,-3.0457,-3.0504,-3.0512,-3.0515,-3.0495,-3.0519,-3.0531,-3.052,-3.0609,-3.0584,-3.0595,-3.0627,-3.0717,-3.0721,-3.0726,-3.0754,-3.0763,-3.0771,0,0,0,0,0,0,-3.0364,-3.0394,-3.0388,-3.0451,-3.0475,-3.0501,-3.0532,-3.0525,-3.0555,-3.0551,-3.0553,-3.0559,-3.0612,-3.0625,-3.0596,-3.0688,-3.066,-3.0667,-3.0677,-3.0686,-3.0693,-3.0688,-3.057,0,0,0,0,0,-3.0377,-3.0414,-3.0438,-3.049,-3.0503,-3.0515,-3.0536,-3.0536,-3.0561,-3.0571,-3.0587,-3.0611,-3.0644,-3.0666,-3.0698,-3.0759,-3.0764,-3.0786,-3.0793,-3.0798,-3.0804,-3.0835,-3.0844,-3.0743,-3.0743,-3.0743,0,0,-3.0404,-3.0425,-3.0448,-3.0496,-3.0515,-3.0551,-3.0524,-3.0565,-3.0591,-3.0577,-3.0627,-3.0639,-3.0666,-3.0722,-3.0748,-3.0734,-3.0833,-3.0804,-3.0808,-3.0811,-3.0841,-3.085,-3.0859,-3.0746,-3.0746,-3.0745,0,0,-3.0471,-3.0491,-3.0536,-3.0556,-3.0585,-3.0593,-3.0604,-3.0631,-3.0639,-3.0689,-3.0679,-3.071,-3.0768,-3.0786,-3.0804,-3.0876,-3.0866,-3.0887,-3.0922,-3.0953,-3.0961,-3.0968,-3.0992,-3.1001,-3.0892,-3.0893,-3.0893,0,-3.05,-3.0556,-3.056,-3.0601,-3.0621,-3.0611,-3.0656,-3.0674,-3.0712,-3.0726,-3.071,-3.0782,-3.0799,-3.0858,-3.0876,-3.0891,-3.0902,-3.0883,-3.096,-3.0967,-3.0973,-3.0996,-3.1006,-3.0895,-3.0894,-3.0894,-3.0894,0,-3.0589,-3.0628,-3.0661,-3.0698,-3.0722,-3.0765,-3.0774,-3.0797,-3.0796,-3.0804,-3.0854,-3.0875,-3.091,-3.0924,-3.0923,-3.0983,-3.0973,-3.0959,-3.0931,-3.0985,-3.1006,-3.1016,-3.0898,-3.0897,-3.0896,-3.0896,0,0,-3.0673,-3.0712,-3.0724,-3.074,-3.0771,-3.0801,-3.0842,-3.0877,-3.0896,-3.0923,-3.0956,-3.1005,-3.0991,-3.101,-3.1011,-3.1038,-3.1092,-3.102,-3.102,-3.1031,-3.1157,-3.1167,-3.1177,-3.1085,-3.1087,-3.1089,-3.1154,0,-3.0742,-3.0815,-3.082,-3.0886,-3.092,-3.0911,-3.0946,-3.0968,-3.0978,-3.1007,-3.1017,-3.1051,-3.1031,-3.1043,-3.1069,-3.108,-3.1117,-3.1075,-3.1114,-3.1116,-3.1107,-3.1189,-3.1199,-3.126,-3.1163,-3.1164,-3.1165,0,-3.0831,-3.0861,-3.093,-3.0955,-3.097,-3.1002,-3.1034,-3.1063,-3.1087,-3.1091,-3.1113,-3.1109,-3.1149,-3.1121,-3.1175,-3.1146,-3.1163,-3.117,-3.1173,-3.1175,-3.1143,-3.1192,-3.128,-3.1288,-3.1179,-3.1178,-3.1177,0,-3.0883,-3.0941,-3.0989,-3.1004,-3.1034,-3.1057,-3.107,-3.1093,-3.1113,-3.114,-3.1153,-3.1184,-3.1201,-3.1224,-3.1228,-3.1208,-3.1282,-3.1254,-3.1285,-3.1285,-3.1301,-3.1299,-3.1391,-3.1314,-3.1314,-3.1314,-3.1313,0,-3.0958,-3.1001,-3.1013,-3.1043,-3.1089,-3.1093,-3.1139,-3.1151,-3.117,-3.1201,-3.1195,-3.1223,-3.1227,-3.1256,-3.126,-3.1303,-3.1311,-3.1315,-3.1315,-3.1314,-3.1314,-3.1324,-3.1319,-3.1316,-3.1316,-3.1315,-3.1315,0,-3.1024,-3.1034,-3.1086,-3.1111,-3.1118,-3.1152,-3.1172,-3.1199,-3.1208,-3.1246,-3.1256,-3.1268,-3.1302,-3.1309,-3.1349,-3.1351,-3.1402,-3.1398,-3.1394,-3.1393,-3.1423,-3.1419,-3.1523,-3.1536,-3.1452,-3.1453,-3.1454,0,-3.1071,-3.1103,-3.1132,-3.1152,-3.1167,-3.12,-3.1221,-3.1225,-3.1247,-3.1276,-3.1299,-3.1333,-3.1359,-3.1413,-3.1425,-3.1455,-3.1451,-3.1486,-3.1456,-3.1454,-3.145,-3.1447,-3.1449,-3.1491,-3.1492,-3.1493,-3.1493,0,-3.1152,-3.1155,-3.1185,-3.1218,-3.1242,-3.1268,-3.1291,-3.1308,-3.1315,-3.134,-3.1374,-3.1395,-3.1436,-3.1468,-3.1498,-3.151,-3.1502,-3.1503,-3.1511,-3.151,-3.1506,-3.1507,-3.1408,-3.15,-3.1499,-3.1499,-3.1498,-3.1498,-3.1208,-3.1236,-3.126,-3.1294,-3.1312,-3.1334,-3.1361,-3.1373,-3.1402,-3.1436,-3.1437,-3.1474,-3.1496,-3.1535,-3.1549,-3.1577,-3.1566,-3.1579,-3.1582,-3.1585,-3.1587,-3.1503,-3.1583,-3.1583,-3.1583,-3.1582,-3.1582,0,-3.1287,-3.1302,-3.1333,-3.1367,-3.1393,-3.1385,-3.141,-3.1432,-3.1466,-3.1487,-3.1513,-3.1552,-3.1583,-3.1598,-3.1628,-3.1647,-3.1644,-3.1655,-3.1653,-3.1655,-3.1596,-3.1585,-3.1657,-3.1657,-3.1657,-3.1657,-3.1657,-3.1657,-3.1331,-3.1377,-3.1383,-3.1437,-3.1452,-3.1489,-3.1504,-3.1524,-3.1541,-3.1585,-3.1611,-3.162,-3.1638,-3.1669,-3.1697,-3.17,-3.171,-3.1722,-3.1724,-3.1667,-3.166,-3.1653,-3.1642,-3.1725,-3.1725,-3.1781,-3.1781,-3.1782]}]]